COSMOS 1275 DEB, 42134

Orbit data source: Space-Track

COSMOS 1275 DEB, 42134 is space debris in LEO originally from a launch on Thu, 04 Jun 1981 UTC launched from the Plesetsk Missile And Space Complex (PKMTR). Debris objects in space refer to the collection of defunct objects orbiting the Earth. Examples of debris include non-operational satellites, rocket bodies, and fragments generated from explosions, collisions, or faulty payload assembly.

Loading next visibility...
COSMOS 1275 DEB details
Identifier
42134, 1981-053QW
Orbit
LEO
Last TLE update22 hours ago
Origin
Flag of CISGUKOS (CIS)
ManufacturerUnknown
MissionSpacecraft
Bus & MotorUnknown
MassUnknown
Launch date (UTC)
1981-06-04 (44 years ago)
Launch vehicleUnknown
Launch site
Plesetsk Missile And Space Complex (PKMTR)
Object type
Payload
Rocket body
Debris
Shape & HBRUnknown
Radar Cross SectionSmall (<0.1 m²)

Expand to show TLE details & history

TLE from 22 hours ago
0 COSMOS 1275 DEB
1 42134U 81053QW  24339.50509155  .00004277  00000-0  56186-2 0  9990
2 42134  83.0059 255.9787 0176766 314.6684  44.0167 13.54874513499699
Epoch: 2024-12-04T12:07Z
Definitive object data (Epoch: 2024-12-04T12:07:19.909Z)
Latitude-0.00004°
Longitude0.34646°
Altitude963.896 km
Speed7.416 km/s
True Right ascension17h 03m 54s
True Declination0° 00' 00"
Sunlit
Object was in daylight at TLE epoch
Visualization TLE readout
Latitude26.73553°
Longitude176.16995°
Altitude1,180.04 km
Speed7.206 km/s
Apparent Right ascension01h 42m 39s
Apparent Declination-7° 31' 07"
Sunlit
Object is in full shadow
Visualization observer readout
Local Sidereal Time08:07:35
Azimuth268.183° W
Elevation-9.587°
Doppler factor1
Orbital elements
Apogee altitude1,182.883 km
Perigee altitude920.219 km
Semi-major axis7,429.688 km
Eccentricity0.0176766
Inclination83.0059°
RAAN255.9787°
Arg. of periapsis314.6684°
True anomaly45.44678°
Mean anomaly44.0167°
Eccentric anomaly44.72946°
Mean motion3.38912 °/min
BSTAR0.0056186
Orbital period106.22 mins
Loading maneuver chart data...
Loading historical data...
Loading historical data...
Loading historical data...
Loading historical data...
Loading historical data...
Loading historical data...
Loading historical data...

COSMOS 1275 DEB Visibility forecast

Observer location: undefined°, undefined

Span
Click to sort rows by Start time (UTC) header in descending order
Start Az.
Max El. time (UTC)
Max El. Az.
Max El.
End time (UTC)
End Az.
10 mins2024-12-05 18:22:15.213Z141.251° SSE2024-12-05 18:27:15.213Z77.851° E28.299°2024-12-05 18:32:15.213Z27.17° NE
10 mins2024-12-05 20:09:15.213Z225.117° WSW2024-12-05 20:13:15.213Z275.796° WNW31.593°2024-12-05 20:19:15.213Z349.314° N
11 mins2024-12-06 05:29:15.213Z17.015° NNE2024-12-06 05:34:15.213Z73.754° E30.207°2024-12-06 05:40:15.213Z136.283° SSE
11 mins2024-12-06 07:16:15.213Z333.161° NNW2024-12-06 07:21:15.213Z274.511° WNW33.825°2024-12-06 07:27:15.213Z207.261° SW
|